WX0MAN Weather Reports


Display with metric or nautical units.
time (UTC)temp
F
wind
direction
speed
MPH
gust
MPH
rain 1hr
in
rain 24hr
in
rain mn
in
humidity
%
barometer
mb
20200406072008 47 112 2.0 4.0 0.00 0.00 0.00 53 1017.5
20200406071516 47 135 2.0 3.0 0.00 0.00 0.00 52 1017.5
20200406071010 48 158 4.0 6.0 0.00 0.00 0.00 52 1017.5
20200406070513 48 158 3.0 5.0 0.00 0.00 0.00 52 1017.5
20200406070015 48 158 4.0 6.0 0.00 0.00 0.00 51 1017.8
20200406065507 48 135 4.0 6.0 0.00 0.00 0.00 51 1017.8
20200406065014 48 112 2.0 4.0 0.00 0.00 0.00 51 1017.8
20200406064515 48 135 3.0 4.0 0.00 0.00 0.00 51 1017.8
20200406064033 48 135 2.0 4.0 0.00 0.00 0.00 51 1017.5
20200406063509 47 90 2.0 3.0 0.00 0.00 0.00 51 1017.5
20200406063016 47 158 4.0 5.0 0.00 0.00 0.00 51 1017.5
20200406062509 47 158 3.0 5.0 0.00 0.00 0.00 51 1017.5
20200406062011 46 135 2.0 4.0 0.00 0.00 0.00 51 1017.5
20200406061517 46 112 2.0 2.0 0.00 0.00 0.00 51 1017.8
20200406061011 46 135 2.0 3.0 0.00 0.00 0.00 50 1017.5
20200406060511 46 135 2.0 6.0 0.00 0.00 0.00 50 1017.5
20200406060144 46 22 1.0 2.0 0.00 0.00 0.00 49 1017.5
20200406055512 47 158 1.0 1.0 0.00 0.00 0.00 49 1017.5
20200406055012 47 0 1.0 2.0 0.00 0.00 0.00 48 1017.8
20200406054514 47 112 1.0 1.0 0.00 0.00 0.00 48 1017.5
20200406054007 47 135 1.0 1.0 0.00 0.00 0.00 48 1017.8
20200406053508 47 248 1.0 1.0 0.00 0.00 0.00 48 1017.5
20200406053016 48 112 1.0 3.0 0.00 0.00 0.00 48 1017.5
20200406052510 47 112 2.0 3.0 0.00 0.00 0.00 49 1017.5
20200406052010 47 158 2.0 3.0 0.00 0.00 0.00 49 1017.5
20200406051517 47 202 3.0 4.0 0.00 0.00 0.00 49 1017.5
20200406051012 47 135 3.0 5.0 0.00 0.00 0.00 50 1017.1
20200406050512 47 292 2.0 3.0 0.00 0.00 0.00 51 1017.1
20200406050014 47 315 2.0 3.0 0.00 0.00 0.00 51 1017.1
20200406045522 47 45 2.0 3.0 0.00 0.00 0.00 51 1017.1
20200406045012 47 112 2.0 4.0 0.00 0.00 0.00 51 1017.5
20200406044513 47 225 1.0 3.0 0.00 0.00 0.00 51 1017.5
20200406044007 47 45 2.0 3.0 0.00 0.00 0.00 51 1017.5
20200406043508 47 158 1.0 1.0 0.00 0.00 0.00 51 1017.5
20200406043015 47 180 1.0 3.0 0.00 0.00 0.00 51 1017.5
20200406042509 47 112 1.0 2.0 0.00 0.00 0.00 51 1017.5
20200406042009 47 158 3.0 4.0 0.00 0.00 0.00 51 1017.5
20200406041516 47 158 1.0 1.0 0.00 0.00 0.00 50 1017.5
20200406041009 47 225 1.0 1.0 0.00 0.00 0.00 50 1017.5
20200406040509 47 248 1.0 1.0 0.00 0.00 0.00 50 1017.5
20200406040017 47 225 2.0 5.0 0.00 0.00 0.00 50 1017.5
20200406035510 47 112 1.0 3.0 0.00 0.00 0.00 50 1017.5
20200406035010 47 22 1.0 1.0 0.00 0.00 0.00 51 1017.5
20200406034518 47 112 2.0 3.0 0.00 0.00 0.00 51 1017.5
20200406034012 47 45 1.0 3.0 0.00 0.00 0.00 51 1017.5
20200406033512 47 68 1.0 2.0 0.00 0.00 0.00 51 1017.5
20200406033020 48 292 1.0 2.0 0.00 0.00 0.00 51 1017.5
20200406032512 48 90 1.0 1.0 0.00 0.00 0.00 51 1017.5
20200406032010 48 68 1.0 2.0 0.00 0.00 0.00 51 1017.5
20200406031517 48 0 1.0 3.0 0.00 0.00 0.00 52 1017.5
20200406031012 47 248 1.0 3.0 0.00 0.00 0.00 52 1017.5
20200406030512 47 90 1.0 3.0 0.00 0.00 0.00 52 1017.5
20200406030020 47 90 1.0 3.0 0.00 0.00 0.00 52 1017.5
20200406025512 47 68 1.0 3.0 0.00 0.00 0.00 52 1017.5
20200406025012 47 68 1.0 2.0 0.00 0.00 0.00 52 1017.5
20200406024513 47 90 1.0 2.0 0.00 0.00 0.00 51 1017.5
20200406024008 47 90 1.0 3.0 0.00 0.00 0.00 50 1017.8
20200406023508 47 68 1.0 2.0 0.00 0.00 0.00 50 1017.8
20200406023015 48 45 1.0 1.0 0.00 0.00 0.00 48 1017.8
20200406022508 48 68 1.0 1.0 0.00 0.00 0.00 47 1017.8
20200406022014 49 338 1.0 1.0 0.00 0.00 0.00 46 1017.8
20200406021515 49 338 1.0 1.0 0.00 0.00 0.00 46 1017.8
20200406021009 50 338 1.0 1.0 0.00 0.00 0.00 45 1017.8
20200406020509 50 0 1.0 2.0 0.00 0.00 0.00 45 1017.8
20200406020017 50 338 1.0 1.0 0.00 0.00 0.00 44 1017.8
20200406015509 50 315 1.0 1.0 0.00 0.00 0.00 44 1017.8
20200406015009 51 0 1.0 1.0 0.00 0.00 0.00 43 1017.8
20200406014516 51 338 1.0 3.0 0.00 0.00 0.00 43 1017.8
20200406014011 51 158 1.0 3.0 0.00 0.00 0.00 43 1017.5
20200406013511 51 135 1.0 3.0 0.00 0.00 0.00 42 1017.5
20200406013019 51 68 1.0 2.0 0.00 0.00 0.00 42 1017.5
20200406012511 52 315 1.0 3.0 0.00 0.00 0.00 42 1017.5
20200406012011 52 202 2.0 3.0 0.00 0.00 0.00 42 1017.8
20200406011512 52 158 2.0 3.0 0.00 0.00 0.00 41 1017.8
20200406011013 53 202 3.0 5.0 0.00 0.00 0.00 41 1017.8
20200406010513 53 158 3.0 3.0 0.00 0.00 0.00 41 1017.8
20200406010014 53 112 3.0 4.0 0.00 0.00 0.00 40 1017.8
20200406005508 53 135 3.0 6.0 0.00 0.00 0.00 40 1017.8
20200406005008 53 135 3.0 4.0 0.00 0.00 0.00 40 1017.8
20200406004515 54 158 3.0 5.0 0.00 0.00 0.00 39 1017.8
20200406004010 54 112 4.0 8.0 0.00 0.00 0.00 39 1017.8
20200406003511 54 158 4.0 5.0 0.00 0.00 0.00 39 1017.8
20200406003018 54 180 4.0 6.0 0.00 0.00 0.00 39 1017.8
20200406002507 54 112 6.0 9.0 0.00 0.00 0.00 39 1017.8
20200406002013 55 135 3.0 6.0 0.00 0.00 0.00 39 1017.8
20200406001514 55 158 4.0 6.0 0.00 0.00 0.00 39 1018.2
20200406001007 55 158 4.0 8.0 0.00 0.00 0.00 39 1018.2
20200406000512 55 202 6.0 8.0 0.00 0.00 0.00 39 1018.2
20200406000014 55 158 4.0 6.0 0.00 0.00 0.00 38 1018.2
20200405235507 55 135 4.0 5.0 0.00 0.00 0.00 38 1018.5
20200405235007 55 135 5.0 6.0 0.00 0.00 0.00 38 1018.5
20200405234537 55 158 6.0 8.0 0.00 0.00 0.00 37 1018.8
20200405234008 56 158 4.0 6.0 0.00 0.00 0.00 37 1018.5
20200405233509 56 158 6.0 8.0 0.00 0.00 0.00 37 1018.5
20200405233018 56 248 7.0 10.0 0.00 0.00 0.00 37 1018.8
20200405232511 56 158 5.0 6.0 0.00 0.00 0.00 37 1018.8
20200405232011 55 225 6.0 10.0 0.00 0.00 0.00 37 1018.8
20200405231512 56 158 4.0 6.0 0.00 0.00 0.00 37 1018.8
20200405231013 55 180 5.0 9.0 0.00 0.00 0.00 37 1019.5
20200405230512 55 202 4.0 6.0 0.00 0.00 0.00 36 1019.9
20200405230013 56 202 6.0 9.0 0.00 0.00 0.00 36 1019.2
20200405225509 56 158 3.0 5.0 0.00 0.00 0.00 36 1019.2
20200405225008 56 158 6.0 9.0 0.00 0.00 0.00 35 1019.2
20200405224515 57 225 4.0 5.0 0.00 0.00 0.00 36 1019.5
20200405224010 57 202 4.0 6.0 0.00 0.00 0.00 35 1019.2
20200405223510 57 180 2.0 3.0 0.00 0.00 0.00 36 1019.2
20200405223023 57 225 5.0 8.0 0.00 0.00 0.00 36 1019.5
20200405222512 56 202 6.0 8.0 0.00 0.00 0.00 35 1019.5
20200405222018 56 158 4.0 5.0 0.00 0.00 0.00 35 1019.5